Weather History for Wahpeton, ND

Change the Weather History Date:

Tuesday, May 8, 2012

  Actual Average (KFFM) Record (KFFM)
Temperature  
Mean Temperature 50 °F -  
Max Temperature 55 °F 63 °F 89 °F (1992)
Min Temperature 46 °F 42 °F 27 °F (1955)
Degree Days  
Heating Degree Days 14    
Moisture  
Dew Point 43 °F    
Average Humidity 76    
Maximum Humidity 93    
Minimum Humidity 67    
Precipitation  
Precipitation 0.02 in - - ()
Sea Level Pressure  
Sea Level Pressure 29.96 in    
Wind  
Wind Speed 14 mph (NNW)    
Max Wind Speed 24 mph    
Max Gust Speed 30 mph    
Visibility 10 miles    
Events      
Averages and records for this station are not official NWS values.
T = Trace of Precipitation, MM = Missing Value Source: NWS Daily Summary

Daily Weather History Graph

Daily Weather History Graph

Search for Another Location

Airport:

Trip Planner

Search our weather history database for the weather conditions in past years. The results will help you decide how hot, cold, wet, or windy it might be!

Date:

Astronomy

May. 08, 2012 Rise Set
Actual Time 6:01 AM CDT 8:44 PM CDT
Civil Twilight 5:27 AM CDT 9:19 PM CDT
Nautical Twilight 4:44 AM CDT 10:03 PM CDT
Astronomical Twilight 3:53 AM CDT 10:54 PM CDT
Moon No Moon Rise 8:05 AM CDT (5/8)
Length of Visible Light 15h 51m
Length of Day
14h 43m
Waning Gibbous, 90% of the Moon is Illuminated
May 8
Waning Gibbous
May 12
Last Quarter
May 20
New
May 28
First Quarter
Jun 4
Full

Hourly Weather History & Observations

Time (CDT) Temp. Windchill Dew Point Humidity Pressure Visibility Wind Dir Wind Speed Gust Speed Precip Events Conditions
12:35 AM 51.8 °F - 41.0 °F 67% 29.90 in 10.0 mi NW 16.1 mph - N/A   Overcast
12:55 AM 50.0 °F - 41.0 °F 71% 29.90 in 10.0 mi NW 12.7 mph - N/A   Mostly Cloudy
1:15 AM 50.0 °F - 41.0 °F 71% 29.90 in 10.0 mi NW 12.7 mph - N/A   Overcast
1:35 AM 48.2 °F - 41.0 °F 76% 29.90 in 10.0 mi NW 10.4 mph - N/A   Mostly Cloudy
1:55 AM 48.2 °F - 41.0 °F 76% 29.89 in 10.0 mi NW 9.2 mph - N/A   Mostly Cloudy
2:15 AM 50.0 °F - 41.0 °F 71% 29.89 in 10.0 mi WNW 11.5 mph - N/A   Mostly Cloudy
2:35 AM 48.2 °F - 41.0 °F 76% 29.89 in 10.0 mi WNW 9.2 mph - N/A   Scattered Clouds
2:55 AM 50.0 °F - 42.8 °F 76% 29.89 in 10.0 mi WNW 10.4 mph - N/A   Mostly Cloudy
3:15 AM 50.0 °F - 42.8 °F 76% 29.89 in 10.0 mi NW 12.7 mph - N/A   Overcast
3:35 AM 50.0 °F - 42.8 °F 76% 29.89 in 10.0 mi NW 11.5 mph 16.1 mph N/A   Overcast
3:55 AM 50.0 °F - 42.8 °F 76% 29.90 in 10.0 mi NNW 12.7 mph - N/A   Overcast
4:15 AM 48.2 °F - 41.0 °F 76% 29.90 in 10.0 mi NNW 13.8 mph 20.7 mph N/A   Overcast
4:35 AM 48.2 °F - 41.0 °F 76% 29.90 in 10.0 mi NNW 12.7 mph - N/A   Overcast
4:55 AM 48.2 °F - 41.0 °F 76% 29.90 in 10.0 mi NNW 11.5 mph 16.1 mph N/A   Overcast
5:15 AM 46.4 °F 40.4 °F 41.0 °F 81% 29.91 in 10.0 mi NNW 13.8 mph 17.3 mph N/A   Overcast
5:35 AM 46.4 °F 41.1 °F 41.0 °F 81% 29.91 in 10.0 mi NW 11.5 mph - N/A   Overcast
5:55 AM 46.4 °F 40.4 °F 41.0 °F 81% 29.91 in 10.0 mi NNW 13.8 mph 18.4 mph N/A   Overcast
6:15 AM 46.4 °F 40.4 °F 41.0 °F 81% 29.91 in 10.0 mi NNW 13.8 mph 17.3 mph N/A   Overcast
6:35 AM 46.4 °F 41.5 °F 41.0 °F 81% 29.91 in 10.0 mi NNW 10.4 mph - N/A   Overcast
6:55 AM 46.4 °F 41.5 °F 41.0 °F 81% 29.92 in 10.0 mi NW 10.4 mph - N/A   Overcast
7:15 AM 46.4 °F 41.1 °F 41.0 °F 81% 29.92 in 10.0 mi NW 11.5 mph - N/A   Overcast
7:55 AM 46.4 °F 40.4 °F 42.8 °F 87% 29.93 in 10.0 mi NW 13.8 mph 20.7 mph N/A   Overcast
8:15 AM 46.4 °F 40.7 °F 42.8 °F 87% 29.94 in 10.0 mi NNW 12.7 mph - N/A   Overcast
8:35 AM 46.4 °F 40.7 °F 42.8 °F 87% 29.94 in 7.0 mi NW 12.7 mph - N/A   Overcast
8:55 AM 48.2 °F - 42.8 °F 82% 29.94 in 10.0 mi NNW 17.3 mph 24.2 mph N/A   Overcast
9:15 AM 50.0 °F - 42.8 °F 76% 29.94 in 10.0 mi NW 13.8 mph 21.9 mph N/A   Overcast
9:35 AM 50.0 °F - 42.8 °F 76% 29.94 in 10.0 mi NNW 18.4 mph 23.0 mph N/A   Overcast
9:55 AM 48.2 °F - 42.8 °F 82% 29.94 in 7.0 mi NW 13.8 mph 23.0 mph N/A   Overcast
10:15 AM 48.2 °F - 42.8 °F 82% 29.95 in 7.0 mi NNW 18.4 mph 26.5 mph N/A   Overcast
10:35 AM 46.4 °F 39.8 °F 44.6 °F 93% 29.95 in 2.0 mi NW 16.1 mph 25.3 mph N/A   Overcast
10:55 AM 48.2 °F - 44.6 °F 87% 29.95 in 2.5 mi NW 20.7 mph - N/A   Overcast
11:15 AM 48.2 °F - 44.6 °F 87% 29.96 in 4.0 mi NW 17.3 mph 25.3 mph N/A   Overcast
11:35 AM 48.2 °F - 44.6 °F 87% 29.96 in 5.0 mi NNW 17.3 mph 24.2 mph N/A   Overcast
11:55 AM 50.0 °F - 44.6 °F 82% 29.96 in 7.0 mi NNW 19.6 mph 24.2 mph N/A   Overcast
12:15 PM 50.0 °F - 44.6 °F 82% 29.96 in 10.0 mi NNW 17.3 mph 27.6 mph N/A   Overcast
12:35 PM 51.8 °F - 46.4 °F 82% 29.96 in 10.0 mi NW 20.7 mph 24.2 mph N/A   Overcast
12:55 PM 51.8 °F - 46.4 °F 82% 29.96 in 10.0 mi NNW 21.9 mph 27.6 mph N/A   Overcast
1:15 PM 53.6 °F - 44.6 °F 72% 29.96 in 10.0 mi NNW 17.3 mph 27.6 mph N/A   Overcast
1:35 PM 55.4 °F - 46.4 °F 72% 29.96 in 10.0 mi NNW 20.7 mph 29.9 mph N/A   Overcast
1:55 PM 55.4 °F - 46.4 °F 72% 29.96 in 10.0 mi NNW 21.9 mph 27.6 mph N/A   Overcast
2:15 PM 53.6 °F - 46.4 °F 77% 29.97 in 10.0 mi NNW 21.9 mph 26.5 mph N/A   Overcast
2:35 PM 51.8 °F - 46.4 °F 82% 29.97 in 10.0 mi NNW 16.1 mph 21.9 mph 0.02 in   Overcast
2:55 PM 53.6 °F - 48.2 °F 82% 29.97 in 10.0 mi NNW 21.9 mph 27.6 mph 0.02 in   Mostly Cloudy
3:15 PM 53.6 °F - 46.4 °F 77% 29.97 in 10.0 mi NNW 20.7 mph 28.8 mph N/A   Mostly Cloudy
3:35 PM 51.8 °F - 46.4 °F 82% 29.98 in 10.0 mi NNW 18.4 mph 29.9 mph N/A   Overcast
3:55 PM 53.6 °F - 44.6 °F 72% 29.98 in 10.0 mi NNW 18.4 mph 29.9 mph N/A   Overcast
4:15 PM 53.6 °F - 44.6 °F 72% 29.98 in 10.0 mi North 24.2 mph 28.8 mph N/A   Overcast
4:35 PM 53.6 °F - 44.6 °F 72% 29.99 in 10.0 mi North 19.6 mph 26.5 mph N/A   Overcast
4:55 PM 53.6 °F - 44.6 °F 72% 29.99 in 10.0 mi North 21.9 mph 27.6 mph N/A   Overcast
5:15 PM 53.6 °F - 42.8 °F 67% 30.00 in 10.0 mi NNW 20.7 mph 26.5 mph N/A   Overcast
5:35 PM 53.6 °F - 42.8 °F 67% 30.00 in 10.0 mi North 20.7 mph 28.8 mph N/A   Overcast
5:55 PM 53.6 °F - 42.8 °F 67% 30.01 in 10.0 mi NNW 16.1 mph 28.8 mph N/A   Overcast
6:15 PM 53.6 °F - 42.8 °F 67% 30.01 in 10.0 mi North 20.7 mph 26.5 mph N/A   Overcast
6:35 PM 53.6 °F - 42.8 °F 67% 30.01 in 10.0 mi NNW 13.8 mph 20.7 mph N/A   Overcast
6:55 PM 53.6 °F - 42.8 °F 67% 30.02 in 10.0 mi NNW 19.6 mph 25.3 mph N/A   Overcast
7:15 PM 53.6 °F - 42.8 °F 67% 30.02 in 10.0 mi NNW 15.0 mph 26.5 mph N/A   Overcast
7:35 PM 51.8 °F - 42.8 °F 71% 30.02 in 10.0 mi North 13.8 mph 21.9 mph N/A   Overcast
7:55 PM 51.8 °F - 42.8 °F 71% 30.03 in 10.0 mi NNW 13.8 mph - N/A   Overcast
8:15 PM 51.8 °F - 42.8 °F 71% 30.03 in 10.0 mi NNW 12.7 mph 19.6 mph N/A   Overcast
8:35 PM 51.8 °F - 42.8 °F 71% 30.04 in 10.0 mi North 11.5 mph 18.4 mph N/A   Overcast
8:55 PM 51.8 °F - 42.8 °F 71% 30.04 in 10.0 mi North 9.2 mph - N/A   Overcast
9:15 PM 51.8 °F - 42.8 °F 71% 30.05 in 10.0 mi NNW 8.1 mph - N/A   Overcast
9:35 PM 51.8 °F - 42.8 °F 71% 30.05 in 10.0 mi North 8.1 mph - N/A   Overcast
9:55 PM 51.8 °F - 42.8 °F 71% 30.06 in 10.0 mi North 8.1 mph - N/A   Overcast
10:15 PM 50.0 °F - 42.8 °F 76% 30.06 in 10.0 mi North 8.1 mph - N/A   Scattered Clouds
10:35 PM 50.0 °F - 42.8 °F 76% 30.06 in 10.0 mi NNW 5.8 mph - N/A   Mostly Cloudy
10:55 PM 50.0 °F - 42.8 °F 76% 30.06 in 10.0 mi North 6.9 mph - N/A   Overcast
11:15 PM 50.0 °F - 42.8 °F 76% 30.06 in 10.0 mi North 6.9 mph - N/A   Overcast
11:35 PM 50.0 °F - 42.8 °F 76% 30.06 in 10.0 mi North 6.9 mph - N/A   Overcast
11:55 PM 48.2 °F - 42.8 °F 82% 30.06 in 10.0 mi NW 5.8 mph - N/A   Overcast